Regional Weather Roundup
Issued by NWS

Home | Current Version | Previous Version | Text Only | Print | Product List | Glossary Off
Versions: 1 2 3 4 5 6 7 8 9 10 11 12 13 14 15 16 17 18 19 20 21 22 23 24 25 26 27 28 29 30 31 32 33 34 35 36 37 38 39 40 41 42 43 44 45 46 47 48 49 50

000
ASUS43 KLSX 271159
RWRMO

WEATHER SUMMARY FOR MISSOURI
NATIONAL WEATHER SERVICE SPRINGFIELD MO
700 AM CDT WED MAY 27 2015

NOTE: "FAIR" INDICATES FEW OR NO CLOUDS BELOW 12,000 FEET WITH NO
       SIGNIFICANT WEATHER AND/OR OBSTRUCTIONS TO VISIBILITY.
       CURRENT SKY AND/OR WEATHER CONDITIONS ARE NOT AVAILABLE FOR
       CHILLICOTHE AND FARMINGTON.

MOZ001>031-035>038-043-044-053-054-271300-
...NORTHERN AND WESTERN MISSOURI...

CITY           SKY/WX    TMP DP  RH WIND       PRES   REMARKS
KANSAS CTY INT MOSUNNY   57  56  96 SW6       30.06R
6HR MIN TEMP:  56; 6HR MAX TEMP:  63;

KANSAS C DTWN  SUNNY     63  57  81 SW6       30.06R
6HR MIN TEMP:  61; 6HR MAX TEMP:  69;

LEE`S SUMMIT   SUNNY     61  56  83 CALM      30.06R
6HR MIN TEMP:  60; 6HR MAX TEMP:  66;

ST JOSEPH      SUNNY     59  55  87 CALM      30.04R
6HR MIN TEMP:  58; 6HR MAX TEMP:  62;

KIRKSVILLE     SUNNY     61  59  93 W7        30.03R
6HR MIN TEMP:  60; 6HR MAX TEMP:  63;


$$
MOZ066>068-077>081-088>096-101>105-271300-
...SOUTHWEST MISSOURI...

CITY           SKY/WX    TMP DP  RH WIND       PRES   REMARKS
SPRINGFIELD    PTSUNNY   65  63  93 S5        30.08R
6HR MIN TEMP:  63; 6HR MAX TEMP:  68; 6HR PCP:  0.10;

JOPLIN         CLOUDY    66  64  93 N8        30.08R THUNDER
6HR MIN TEMP:  65; 6HR MAX TEMP:  68;


$$
MOZ032>034-039>042-045>050-055>058-069>072-271300-
...CENTRAL MISSOURI...

CITY           SKY/WX    TMP DP  RH WIND       PRES   REMARKS
COLUMBIA       CLOUDY    66  62  87 SW7       30.05R
6HR MIN TEMP:  63; 6HR MAX TEMP:  67;

JEFFERSON CITY CLOUDY    67  60  78 SW8       30.05R
6HR MIN TEMP:  65; 6HR MAX TEMP:  69;

ROLLA          CLOUDY    63  60  90 S8        30.07S
6HR MIN TEMP:  61; 6HR MAX TEMP:  65; 6HR PCP:  0.08;

SEDALIA        PTSUNNY   65  61  87 SW7       30.06R
6HR MIN TEMP:  64; 6HR MAX TEMP:  69;


$$
MOZ051-052-059>065-271300-
...EAST CENTRAL MISSOURI...

CITY           SKY/WX    TMP DP  RH WIND       PRES   REMARKS
ST LOUIS INTL  LGT RAIN  70  63  78 SW13      30.05R
6HR MIN TEMP:  70; 6HR MAX TEMP:  72; 6HR PCP: TRACE;

SPIRIT OF STL  CLOUDY    69  63  81 SW12      30.04R
ST CHARLES     CLOUDY    68  63  84 SW3       30.02R
6HR MIN TEMP:  65; 6HR MAX TEMP:  68;


$$
MOZ072>076-082>087-097>100-106>115-271300-
...SOUTH CENTRAL AND SOUTHEAST MISSOURI...

CITY           SKY/WX    TMP DP  RH WIND       PRES   REMARKS
CAPE GIRARDEAU MOSUNNY   65  64  97 SE5       30.08R
6HR MIN TEMP:  62; 6HR MAX TEMP:  68;

FARMINGTON     CLOUDY    64  61  88 W10       30.16R THUNDER
6HR MIN TEMP:  63; 6HR MAX TEMP:  64; 6HR PCP:  0.04;

POPLAR BLUFF   MOSUNNY   66  64  93 CALM      30.07R
6HR MIN TEMP:  63; 6HR MAX TEMP:  67;

WEST PLAINS    CLOUDY    68  65  90 W5        30.10R
6HR MIN TEMP:  65; 6HR MAX TEMP:  68;


$$


USA.gov is the U.S. government's official web portal to all federal, state and local government web resources and services.